Durango, CO

9:03 AM MDT on May 28, 2017 (GMT -0600)
Durango-La Plata County

Weather History for KDRO - May, 2013

Change the Weather History Date:

Thursday, May 23, 2013

  Actual Average Record
Temperature  
Mean Temperature 59 °F 55 °F  
Max Temperature 82 °F 73 °F 89 °F (1984)
Min Temperature 36 °F 37 °F 25 °F (1998)
Degree Days  
Heating Degree Days 6 10  
Month to date heating degree days 289 302  
Since 1 July heating degree days 7029 6938  
Cooling Degree Days 0 0  
Month to date cooling degree days 0 0  
Year to date cooling degree days 0 0  
Growing Degree Days 10 (Base 50)    
Moisture  
Dew Point 21 °F    
Average Humidity 30    
Maximum Humidity 50    
Minimum Humidity 9    
Precipitation  
Precipitation 0.00 in 0.01 in 0.29 in (1987)
Month to date precipitation 0.47 0.67  
Year to date precipitation 3.75 5.30  
Sea Level Pressure  
Sea Level Pressure 29.83 in    
Wind  
Wind Speed 9 mph (WSW)    
Max Wind Speed 30 mph    
Max Gust Speed 49 mph    
Visibility 10 miles    
Events      
T = Trace of Precipitation, MM = Missing Value Source: NWS Daily Summary

Daily Weather History Graph

Daily Weather History Graph

Search for Another Location

Airport or City:

Trip Planner

Search our weather history database for the weather conditions in past years. The results will help you decide how hot, cold, wet, or windy it might be!

Date:

Astronomy

May. 23, 2013 Rise Set
Actual Time 5:56 AM MDT 8:19 PM MDT
Civil Twilight 5:26 AM MDT 8:49 PM MDT
Nautical Twilight 4:50 AM MDT 9:25 PM MDT
Astronomical Twilight 4:10 AM MDT 10:06 PM MDT
Moon 6:56 PM MDT (5/23) 4:41 AM MDT (5/23)
Length of Visible Light 15h 22m
Length of Day
14h 22m
Waxing Gibbous, 97% of the Moon is Illuminated
May 23
Waxing Gibbous
May 24
Full
May 31
Last Quarter
Jun 8
New
Jun 16
First Quarter

Hourly Weather History & Observations

Time (MDT) Temp. Windchill Dew Point Humidity Pressure Visibility Wind Dir Wind Speed Gust Speed Precip Events Conditions
12:53 AM 51.1 °F - 27.0 °F 39% 29.78 in 10.0 mi North 6.9 mph - N/A   Clear
1:53 AM 48.0 °F - 25.0 °F 41% 29.80 in 10.0 mi NNE 8.1 mph - N/A   Clear
2:53 AM 46.9 °F - 25.0 °F 42% 29.81 in 10.0 mi Calm Calm - N/A   Clear
3:53 AM 42.1 °F 38.4 °F 23.0 °F 47% 29.86 in 10.0 mi NNE 5.8 mph - N/A   Clear
4:53 AM 39.0 °F 35.7 °F 23.0 °F 53% 29.87 in 10.0 mi ENE 4.6 mph - N/A   Clear
5:53 AM 42.1 °F 37.1 °F 24.1 °F 49% 29.86 in 10.0 mi North 8.1 mph - N/A   Clear
6:53 AM 44.1 °F 42.5 °F 26.1 °F 49% 29.88 in 10.0 mi North 3.5 mph - N/A   Clear
7:53 AM 50.0 °F - 28.9 °F 44% 29.88 in 10.0 mi Calm Calm - N/A   Clear
8:53 AM 60.1 °F - 27.0 °F 28% 29.88 in 10.0 mi Calm Calm - N/A   Clear
9:53 AM 64.9 °F - 28.9 °F 26% 29.86 in - North - - N/A   Clear
10:53 AM 70.0 °F - 28.0 °F 21% 29.86 in 10.0 mi SSE 3.5 mph - N/A   Clear
11:33 AM 73.4 °F - 21.2 °F 14% 30.09 in 10.0 mi SSW 16.1 mph 23.0 mph N/A   Clear
11:53 AM 73.0 °F - 21.0 °F 14% 29.86 in 10.0 mi SW 9.2 mph 18.4 mph N/A   Clear
12:53 PM 73.9 °F - 24.1 °F 16% 29.85 in 10.0 mi SSW 13.8 mph 25.3 mph N/A   Clear
1:53 PM 78.1 °F - 21.0 °F 12% 29.82 in 10.0 mi South 10.4 mph 25.3 mph N/A   Clear
2:53 PM 81.0 °F - 19.0 °F 10% 29.81 in 10.0 mi WSW 12.7 mph 26.5 mph N/A   Clear
3:53 PM 81.0 °F - 15.1 °F 8% 29.77 in 10.0 mi SSW 29.9 mph 49.5 mph N/A   Clear
4:53 PM 81.0 °F - 17.1 °F 9% 29.78 in 10.0 mi SSW 26.5 mph 32.2 mph N/A   Clear
5:53 PM 78.1 °F - 15.1 °F 9% 29.76 in 10.0 mi SSW 15.0 mph 27.6 mph N/A   Clear
6:53 PM 78.1 °F - 15.1 °F 9% 29.75 in 10.0 mi SW 16.1 mph 29.9 mph N/A   Clear
7:53 PM 75.0 °F - 15.1 °F 10% 29.76 in 10.0 mi WSW 15.0 mph 21.9 mph N/A   Clear
8:53 PM 69.1 °F - 14.0 °F 12% 29.76 in 10.0 mi WSW 6.9 mph - N/A   Clear
9:53 PM 64.9 °F - 15.1 °F 15% 29.79 in 10.0 mi WSW 5.8 mph - N/A   Clear
10:53 PM 60.1 °F - 14.0 °F 16% 29.82 in 10.0 mi Calm Calm - N/A   Clear
11:53 PM 52.0 °F - 18.0 °F 26% 29.84 in 10.0 mi NNE 4.6 mph - N/A   Clear